Time,TemperatureF,DewpointF,PressureIn,WindDirection,WindDirectionDegrees,WindSpeedMPH,WindSpeedGustMPH,Humidity,HourlyPrecipIn,Conditions,Clouds,dailyrainin,SoftwareType,DateUTC
2013-04-16 00:00:00,61.8,58.8,30.17,NNE,17,0.0,0.0,90,0.00,,,0.02,Wunderground v.1.15,2013-04-16 04:00:00,
2013-04-16 00:04:00,61.6,58.6,30.17,NNE,17,0.0,0.0,90,0.00,,,0.00,Wunderground v.1.15,2013-04-16 04:04:00,
2013-04-16 00:06:00,61.6,58.6,30.17,NNE,17,0.0,0.0,90,0.00,,,0.00,Wunderground v.1.15,2013-04-16 04:06:00,
2013-04-16 00:08:00,61.5,58.8,30.17,NNE,17,0.0,0.0,91,0.00,,,0.00,Wunderground v.1.15,2013-04-16 04:08:00,
2013-04-16 00:14:00,61.3,58.7,30.17,NNE,17,0.0,0.0,91,0.00,,,0.00,Wunderground v.1.15,2013-04-16 04:14:00,
2013-04-16 00:20:00,61.1,58.1,30.17,NNE,17,0.0,0.0,90,0.00,,,0.00,Wunderground v.1.15,2013-04-16 04:20:00,
2013-04-16 00:26:00,60.9,58.3,30.17,NNE,17,0.0,0.0,91,0.00,,,0.00,Wunderground v.1.15,2013-04-16 04:26:00,
2013-04-16 00:32:00,60.7,58.4,30.17,NNE,17,0.0,0.0,92,0.00,,,0.00,Wunderground v.1.15,2013-04-16 04:32:00,
2013-04-16 00:38:00,60.5,58.5,30.17,NNE,17,0.0,0.0,93,0.00,,,0.00,Wunderground v.1.15,2013-04-16 04:38:00,
2013-04-16 00:44:00,60.3,58.3,30.17,NNE,17,0.0,0.0,93,0.00,,,0.00,Wunderground v.1.15,2013-04-16 04:44:00,
2013-04-16 00:50:00,60.2,58.2,30.17,NNE,17,0.0,0.0,93,0.00,,,0.00,Wunderground v.1.15,2013-04-16 04:50:00,
2013-04-16 00:56:00,60.0,58.0,30.17,NNE,17,0.0,0.0,93,0.00,,,0.00,Wunderground v.1.15,2013-04-16 04:56:00,
2013-04-16 01:02:00,59.9,57.9,30.18,NNE,17,0.0,0.0,93,0.00,,,0.00,Wunderground v.1.15,2013-04-16 05:02:00,
2013-04-16 01:08:00,59.7,57.7,30.18,NNE,17,0.0,0.0,93,0.00,,,0.00,Wunderground v.1.15,2013-04-16 05:08:00,
2013-04-16 01:14:00,59.7,58.0,30.18,NNE,17,0.0,0.0,94,0.00,,,0.00,Wunderground v.1.15,2013-04-16 05:14:00,
2013-04-16 01:20:00,59.5,57.8,30.18,NNE,17,0.0,0.0,94,0.00,,,0.00,Wunderground v.1.15,2013-04-16 05:20:00,
2013-04-16 01:26:00,59.3,57.6,30.18,NNE,17,0.0,0.0,94,0.00,,,0.00,Wunderground v.1.15,2013-04-16 05:26:00,
2013-04-16 01:32:00,59.1,57.4,30.18,NNE,17,0.0,0.0,94,0.00,,,0.00,Wunderground v.1.15,2013-04-16 05:32:00,
2013-04-16 01:38:00,58.9,57.2,30.18,NNE,17,0.0,0.0,94,0.00,,,0.00,Wunderground v.1.15,2013-04-16 05:38:00,
2013-04-16 01:44:00,58.7,57.3,30.18,NNE,17,0.0,0.0,95,0.00,,,0.00,Wunderground v.1.15,2013-04-16 05:44:00,
2013-04-16 01:50:00,58.6,56.9,30.18,NNE,17,0.0,0.0,94,0.00,,,0.00,Wunderground v.1.15,2013-04-16 05:50:00,
2013-04-16 01:56:00,58.5,57.1,30.18,NNE,17,0.0,0.0,95,0.00,,,0.00,Wunderground v.1.15,2013-04-16 05:56:00,
2013-04-16 02:02:00,58.4,57.0,30.18,NNE,17,0.0,0.0,95,0.00,,,0.00,Wunderground v.1.15,2013-04-16 06:02:00,
2013-04-16 02:08:00,58.3,56.9,30.18,NNE,17,0.0,0.0,95,0.00,,,0.00,Wunderground v.1.15,2013-04-16 06:08:00,
2013-04-16 02:14:00,58.4,57.3,30.18,NNE,17,0.0,0.0,96,0.00,,,0.00,Wunderground v.1.15,2013-04-16 06:14:00,
2013-04-16 02:20:00,58.5,57.4,30.18,NNE,17,0.0,0.0,96,0.00,,,0.00,Wunderground v.1.15,2013-04-16 06:20:00,
2013-04-16 02:26:00,58.6,57.8,30.18,NNE,17,0.0,0.0,97,0.00,,,0.00,Wunderground v.1.15,2013-04-16 06:26:00,
2013-04-16 02:32:00,58.8,58.0,30.18,NNE,17,0.0,0.0,97,0.00,,,0.00,Wunderground v.1.15,2013-04-16 06:32:00,
2013-04-16 02:38:00,58.9,58.1,30.18,NNE,17,0.0,0.0,97,0.00,,,0.00,Wunderground v.1.15,2013-04-16 06:38:00,
2013-04-16 02:44:00,58.9,58.1,30.18,NNE,17,0.0,0.0,97,0.00,,,0.00,Wunderground v.1.15,2013-04-16 06:44:00,
2013-04-16 02:50:00,59.0,58.2,30.18,NNE,17,0.0,0.0,97,0.00,,,0.00,Wunderground v.1.15,2013-04-16 06:50:00,
2013-04-16 02:56:00,59.1,58.2,30.18,NNE,17,0.0,0.0,97,0.00,,,0.00,Wunderground v.1.15,2013-04-16 06:56:00,
2013-04-16 03:02:00,59.2,58.3,30.18,NNE,17,0.0,0.0,97,0.00,,,0.00,Wunderground v.1.15,2013-04-16 07:02:00,
2013-04-16 03:08:00,59.2,58.3,30.18,NNE,17,0.0,0.0,97,0.00,,,0.00,Wunderground v.1.15,2013-04-16 07:08:00,
2013-04-16 03:14:00,59.1,58.0,30.18,NNE,17,0.0,0.0,96,0.00,,,0.00,Wunderground v.1.15,2013-04-16 07:14:00,
2013-04-16 03:20:00,58.9,57.8,30.18,NNE,17,0.0,0.0,96,0.00,,,0.00,Wunderground v.1.15,2013-04-16 07:20:00,
2013-04-16 03:26:00,58.6,57.5,30.18,NNE,17,0.0,0.0,96,0.00,,,0.00,Wunderground v.1.15,2013-04-16 07:26:00,
2013-04-16 03:32:00,58.4,57.3,30.18,NNE,17,0.0,0.0,96,0.00,,,0.00,Wunderground v.1.15,2013-04-16 07:32:00,
2013-04-16 03:38:00,58.3,57.2,30.18,NNE,17,0.0,0.0,96,0.00,,,0.00,Wunderground v.1.15,2013-04-16 07:38:00,
2013-04-16 03:44:00,58.1,57.0,30.18,NNE,17,0.0,0.0,96,0.00,,,0.00,Wunderground v.1.15,2013-04-16 07:44:00,
2013-04-16 03:50:00,58.0,56.9,30.18,NNE,17,0.0,0.0,96,0.00,,,0.00,Wunderground v.1.15,2013-04-16 07:50:00,
2013-04-16 03:56:00,57.9,56.8,30.18,NNE,17,0.0,0.0,96,0.00,,,0.00,Wunderground v.1.15,2013-04-16 07:56:00,
2013-04-16 04:02:00,57.7,56.6,30.18,NNE,17,0.0,0.0,96,0.00,,,0.00,Wunderground v.1.15,2013-04-16 08:02:00,
2013-04-16 04:08:00,57.5,56.4,30.18,NNE,17,0.0,0.0,96,0.00,,,0.00,Wunderground v.1.15,2013-04-16 08:08:00,
2013-04-16 04:14:00,57.4,56.3,30.18,NNE,17,0.0,0.0,96,0.00,,,0.00,Wunderground v.1.15,2013-04-16 08:14:00,
2013-04-16 04:20:00,57.2,56.1,30.18,NNE,17,0.0,0.0,96,0.00,,,0.00,Wunderground v.1.15,2013-04-16 08:20:00,
2013-04-16 04:26:00,57.0,55.9,30.18,NNE,17,0.0,0.0,96,0.00,,,0.00,Wunderground v.1.15,2013-04-16 08:26:00,
2013-04-16 04:32:00,56.9,55.8,30.18,NNE,17,0.0,0.0,96,0.00,,,0.00,Wunderground v.1.15,2013-04-16 08:32:00,
2013-04-16 04:38:00,56.8,56.0,30.18,NNE,17,0.0,0.0,97,0.00,,,0.00,Wunderground v.1.15,2013-04-16 08:38:00,
2013-04-16 04:44:00,56.9,56.1,30.18,NNE,17,0.0,0.0,97,0.00,,,0.00,Wunderground v.1.15,2013-04-16 08:44:00,
2013-04-16 04:50:00,57.0,56.4,30.18,NNE,17,0.0,0.0,98,0.00,,,0.00,Wunderground v.1.15,2013-04-16 08:50:00,
2013-04-16 04:56:00,57.0,56.4,30.18,NNE,17,0.0,0.0,98,0.00,,,0.00,Wunderground v.1.15,2013-04-16 08:56:00,
2013-04-16 05:02:00,57.1,56.5,30.18,NNE,17,0.0,0.0,98,0.00,,,0.00,Wunderground v.1.15,2013-04-16 09:02:00,
2013-04-16 05:08:00,57.2,56.6,30.18,NNE,17,0.0,0.0,98,0.00,,,0.00,Wunderground v.1.15,2013-04-16 09:08:00,
2013-04-16 05:14:00,57.2,56.6,30.18,NNE,17,0.0,0.0,98,0.00,,,0.00,Wunderground v.1.15,2013-04-16 09:14:00,
2013-04-16 05:20:00,57.3,56.7,30.18,NNE,17,0.0,0.0,98,0.00,,,0.00,Wunderground v.1.15,2013-04-16 09:20:00,
2013-04-16 05:26:00,57.2,56.6,30.18,NNE,17,0.0,0.0,98,0.00,,,0.00,Wunderground v.1.15,2013-04-16 09:26:00,
2013-04-16 05:32:00,57.1,56.5,30.18,NNE,17,0.0,0.0,98,0.00,,,0.00,Wunderground v.1.15,2013-04-16 09:32:00,
2013-04-16 05:38:00,56.9,56.1,30.18,NNE,17,0.0,0.0,97,0.00,,,0.00,Wunderground v.1.15,2013-04-16 09:38:00,
2013-04-16 05:44:00,56.8,56.0,30.19,NNE,17,0.0,0.0,97,0.00,,,0.00,Wunderground v.1.15,2013-04-16 09:44:00,
2013-04-16 05:50:00,56.9,56.3,30.18,NNE,17,0.0,0.0,98,0.00,,,0.00,Wunderground v.1.15,2013-04-16 09:50:00,
2013-04-16 05:56:00,56.9,56.3,30.19,NNE,17,0.0,0.0,98,0.00,,,0.00,Wunderground v.1.15,2013-04-16 09:56:00,
2013-04-16 06:02:00,57.0,56.4,30.19,NNE,17,0.0,0.0,98,0.00,,,0.00,Wunderground v.1.15,2013-04-16 10:02:00,
2013-04-16 06:08:00,57.0,56.4,30.19,NNE,17,0.0,0.0,98,0.00,,,0.00,Wunderground v.1.15,2013-04-16 10:08:00,
2013-04-16 06:14:00,57.1,56.5,30.19,NNE,17,0.0,0.0,98,0.00,,,0.00,Wunderground v.1.15,2013-04-16 10:14:00,
2013-04-16 06:20:00,57.2,56.6,30.20,NNE,17,0.0,0.0,98,0.00,,,0.00,Wunderground v.1.15,2013-04-16 10:20:00,
2013-04-16 06:26:00,57.5,56.9,30.20,NNE,17,0.0,0.0,98,0.00,,,0.00,Wunderground v.1.15,2013-04-16 10:26:00,
2013-04-16 06:32:00,57.5,57.2,30.20,NNE,17,0.0,0.0,99,0.00,,,0.00,Wunderground v.1.15,2013-04-16 10:32:00,
2013-04-16 06:38:00,57.6,57.3,30.20,NNE,17,0.0,0.0,99,0.00,,,0.00,Wunderground v.1.15,2013-04-16 10:38:00,
2013-04-16 06:44:00,57.7,57.4,30.20,NNE,17,0.0,0.0,99,0.00,,,0.00,Wunderground v.1.15,2013-04-16 10:44:00,
2013-04-16 06:50:00,57.7,57.4,30.20,NNE,17,0.0,0.0,99,0.00,,,0.00,Wunderground v.1.15,2013-04-16 10:50:00,
2013-04-16 06:56:00,57.7,57.4,30.21,NNE,17,0.0,0.0,99,0.00,,,0.00,Wunderground v.1.15,2013-04-16 10:56:00,
2013-04-16 07:02:00,57.7,57.4,30.21,NNE,17,0.0,0.0,99,0.00,,,0.00,Wunderground v.1.15,2013-04-16 11:02:00,
2013-04-16 07:08:00,57.8,57.5,30.21,NNE,17,0.0,0.0,99,0.00,,,0.00,Wunderground v.1.15,2013-04-16 11:08:00,
2013-04-16 07:14:00,57.8,57.5,30.21,NNE,17,0.0,0.0,99,0.00,,,0.00,Wunderground v.1.15,2013-04-16 11:14:00,
2013-04-16 07:20:00,57.8,57.5,30.22,NNE,17,0.0,0.0,99,0.00,,,0.00,Wunderground v.1.15,2013-04-16 11:20:00,
2013-04-16 07:26:00,57.8,57.5,30.22,NNE,17,0.0,0.0,99,0.00,,,0.00,Wunderground v.1.15,2013-04-16 11:26:00,
2013-04-16 07:32:00,57.8,57.5,30.22,NNE,17,0.0,0.0,99,0.00,,,0.00,Wunderground v.1.15,2013-04-16 11:32:00,
2013-04-16 07:38:00,57.8,57.5,30.22,NNE,17,0.0,0.0,99,0.00,,,0.00,Wunderground v.1.15,2013-04-16 11:38:00,
2013-04-16 07:44:00,57.9,57.6,30.23,NNE,17,0.0,0.0,99,0.00,,,0.00,Wunderground v.1.15,2013-04-16 11:44:00,
2013-04-16 07:50:00,58.0,57.7,30.23,NNE,17,0.0,0.0,99,0.00,,,0.00,Wunderground v.1.15,2013-04-16 11:50:00,
2013-04-16 07:56:00,58.1,57.8,30.23,NNE,17,0.0,0.0,99,0.00,,,0.00,Wunderground v.1.15,2013-04-16 11:56:00,
2013-04-16 08:02:00,58.1,57.8,30.24,NNE,17,0.0,0.0,99,0.00,,,0.00,Wunderground v.1.15,2013-04-16 12:02:00,
2013-04-16 08:08:00,58.0,57.7,30.24,NNE,17,0.0,0.0,99,0.00,,,0.00,Wunderground v.1.15,2013-04-16 12:08:00,
2013-04-16 08:14:00,58.1,57.8,30.24,NNE,17,0.0,0.0,99,0.00,,,0.00,Wunderground v.1.15,2013-04-16 12:14:00,
2013-04-16 08:20:00,58.2,57.9,30.24,NNE,17,0.0,0.0,99,0.00,,,0.00,Wunderground v.1.15,2013-04-16 12:20:00,
2013-04-16 08:26:00,58.3,58.0,30.24,NNE,17,0.0,0.0,99,0.00,,,0.00,Wunderground v.1.15,2013-04-16 12:26:00,
2013-04-16 08:32:00,58.3,58.0,30.24,NNE,17,0.0,0.0,99,0.00,,,0.00,Wunderground v.1.15,2013-04-16 12:32:00,
2013-04-16 08:38:00,58.3,58.0,30.24,NNE,17,0.0,0.0,99,0.00,,,0.00,Wunderground v.1.15,2013-04-16 12:38:00,
2013-04-16 08:44:00,58.4,58.1,30.24,NNE,17,0.0,0.0,99,0.00,,,0.00,Wunderground v.1.15,2013-04-16 12:44:00,
2013-04-16 08:50:00,58.5,58.2,30.24,NNE,17,0.0,0.0,99,0.00,,,0.00,Wunderground v.1.15,2013-04-16 12:50:00,
2013-04-16 08:56:00,58.6,58.3,30.25,NNE,17,0.0,0.0,99,0.00,,,0.00,Wunderground v.1.15,2013-04-16 12:56:00,
2013-04-16 09:02:00,58.6,58.3,30.25,NNE,17,0.0,0.0,99,0.00,,,0.00,Wunderground v.1.15,2013-04-16 13:02:00,
2013-04-16 09:08:00,58.7,58.4,30.25,NNE,17,0.0,0.0,99,0.00,,,0.00,Wunderground v.1.15,2013-04-16 13:08:00,
2013-04-16 09:14:00,58.8,58.5,30.25,NNE,17,0.0,0.0,99,0.00,,,0.00,Wunderground v.1.15,2013-04-16 13:14:00,
2013-04-16 09:20:00,58.8,58.5,30.25,NNE,17,0.0,0.0,99,0.00,,,0.00,Wunderground v.1.15,2013-04-16 13:20:00,
2013-04-16 09:26:00,58.9,58.6,30.25,NNE,17,0.0,1.0,99,0.00,,,0.00,Wunderground v.1.15,2013-04-16 13:26:00,
2013-04-16 09:32:00,59.0,58.7,30.25,NNE,17,0.0,1.0,99,0.00,,,0.00,Wunderground v.1.15,2013-04-16 13:32:00,
2013-04-16 09:38:00,59.0,58.4,30.26,NNE,17,0.0,1.0,98,0.00,,,0.00,Wunderground v.1.15,2013-04-16 13:38:00,
2013-04-16 09:44:00,59.1,58.5,30.26,NNE,17,0.0,0.0,98,0.00,,,0.00,Wunderground v.1.15,2013-04-16 13:44:00,
2013-04-16 09:50:00,59.2,58.9,30.26,NNW,343,0.0,0.0,99,0.00,,,0.00,Wunderground v.1.15,2013-04-16 13:50:00,
2013-04-16 09:56:00,59.2,58.6,30.26,NNW,343,0.0,0.0,98,0.00,,,0.00,Wunderground v.1.15,2013-04-16 13:56:00,
2013-04-16 10:02:00,59.3,58.7,30.26,NNW,343,0.0,1.0,98,0.00,,,0.00,Wunderground v.1.15,2013-04-16 14:02:00,
2013-04-16 10:08:00,59.5,58.9,30.27,NNW,343,0.0,1.0,98,0.00,,,0.00,Wunderground v.1.15,2013-04-16 14:08:00,
2013-04-16 10:14:00,59.5,58.9,30.27,NNW,343,0.0,0.0,98,0.00,,,0.00,Wunderground v.1.15,2013-04-16 14:14:00,
2013-04-16 10:20:00,59.8,59.2,30.27,NNW,343,0.0,0.0,98,0.00,,,0.00,Wunderground v.1.15,2013-04-16 14:20:00,
2013-04-16 10:26:00,60.2,59.6,30.27,NNW,343,0.0,1.0,98,0.00,,,0.00,Wunderground v.1.15,2013-04-16 14:26:00,
2013-04-16 10:32:00,60.5,59.6,30.27,NNW,343,0.0,0.0,97,0.00,,,0.00,Wunderground v.1.15,2013-04-16 14:32:00,
2013-04-16 10:38:00,60.7,59.8,30.27,NNW,343,0.0,2.0,97,0.00,,,0.00,Wunderground v.1.15,2013-04-16 14:38:00,
2013-04-16 10:44:00,60.9,59.8,30.27,NNW,343,0.0,0.0,96,0.00,,,0.00,Wunderground v.1.15,2013-04-16 14:44:00,
2013-04-16 10:50:00,60.9,59.5,30.28,NNW,343,0.0,1.0,95,0.00,,,0.00,Wunderground v.1.15,2013-04-16 14:50:00,
2013-04-16 10:56:00,61.0,59.3,30.28,NNW,343,0.0,1.0,94,0.00,,,0.00,Wunderground v.1.15,2013-04-16 14:56:00,
2013-04-16 11:02:00,61.2,59.5,30.28,NNW,343,0.0,0.0,94,0.00,,,0.00,Wunderground v.1.15,2013-04-16 15:02:00,
2013-04-16 11:08:00,61.4,59.7,30.27,NNW,343,0.0,0.0,94,0.00,,,0.00,Wunderground v.1.15,2013-04-16 15:08:00,
2013-04-16 11:14:00,61.9,60.2,30.27,NNW,343,0.0,1.0,94,0.00,,,0.00,Wunderground v.1.15,2013-04-16 15:14:00,
2013-04-16 11:20:00,62.3,60.2,30.28,NNW,343,0.0,0.0,93,0.00,,,0.00,Wunderground v.1.15,2013-04-16 15:20:00,
2013-04-16 11:26:00,62.6,59.9,30.28,NNW,340,0.0,1.0,91,0.00,,,0.00,Wunderground v.1.15,2013-04-16 15:26:00,
2013-04-16 11:32:00,62.9,60.5,30.28,NNW,339,0.0,1.0,92,0.00,,,0.00,Wunderground v.1.15,2013-04-16 15:32:00,
2013-04-16 11:38:00,63.1,60.1,30.28,NNW,339,0.0,1.0,90,0.00,,,0.00,Wunderground v.1.15,2013-04-16 15:38:00,
2013-04-16 11:44:00,63.3,60.3,30.28,NNW,339,1.0,1.0,90,0.00,,,0.00,Wunderground v.1.15,2013-04-16 15:44:00,
2013-04-16 11:50:00,63.6,60.0,30.27,NNW,333,1.0,1.0,88,0.00,,,0.00,Wunderground v.1.15,2013-04-16 15:50:00,
2013-04-16 11:56:00,63.8,60.2,30.27,NNW,331,1.0,2.0,88,0.00,,,0.00,Wunderground v.1.15,2013-04-16 15:56:00,
2013-04-16 12:02:00,64.1,60.2,30.28,NNW,331,1.0,1.0,87,0.00,,,0.00,Wunderground v.1.15,2013-04-16 16:02:00,
2013-04-16 12:08:00,64.9,60.9,30.27,SSW,202,1.0,1.0,87,0.00,,,0.00,Wunderground v.1.15,2013-04-16 16:08:00,
2013-04-16 12:14:00,65.9,61.6,30.28,ESE,103,1.0,2.0,86,0.00,,,0.00,Wunderground v.1.15,2013-04-16 16:14:00,
2013-04-16 12:20:00,66.6,60.9,30.27,ENE,66,1.0,1.0,82,0.00,,,0.00,Wunderground v.1.15,2013-04-16 16:20:00,
2013-04-16 12:26:00,67.0,61.3,30.27,East,86,1.0,2.0,82,0.00,,,0.00,Wunderground v.1.15,2013-04-16 16:26:00,
2013-04-16 12:32:00,67.1,60.7,30.27,East,80,1.0,2.0,80,0.00,,,0.00,Wunderground v.1.15,2013-04-16 16:32:00,
2013-04-16 12:38:00,67.2,61.5,30.27,East,82,1.0,2.0,82,0.00,,,0.00,Wunderground v.1.15,2013-04-16 16:38:00,
2013-04-16 12:44:00,67.4,61.4,30.27,ENE,62,1.0,1.0,81,0.00,,,0.00,Wunderground v.1.15,2013-04-16 16:44:00,
2013-04-16 12:50:00,67.9,61.9,30.27,ENE,64,1.0,1.0,81,0.00,,,0.00,Wunderground v.1.15,2013-04-16 16:50:00,
2013-04-16 12:56:00,68.4,61.3,30.26,ENE,71,1.0,2.0,78,0.00,,,0.00,Wunderground v.1.15,2013-04-16 16:56:00,
2013-04-16 13:02:00,68.8,61.7,30.26,East,82,1.0,1.0,78,0.00,,,0.00,Wunderground v.1.15,2013-04-16 17:02:00,
2013-04-16 13:08:00,69.3,61.4,30.26,NNW,337,1.0,1.0,76,0.00,,,0.00,Wunderground v.1.15,2013-04-16 17:08:00,
2013-04-16 13:14:00,69.6,60.9,30.26,East,82,1.0,3.0,74,0.00,,,0.00,Wunderground v.1.15,2013-04-16 17:14:00,
2013-04-16 13:20:00,69.8,62.3,30.26,East,82,1.0,1.0,77,0.00,,,0.00,Wunderground v.1.15,2013-04-16 17:20:00,
2013-04-16 13:26:00,70.0,61.7,30.26,East,79,1.0,3.0,75,0.00,,,0.00,Wunderground v.1.15,2013-04-16 17:26:00,
2013-04-16 13:32:00,70.4,62.5,30.25,NNE,32,1.0,2.0,76,0.00,,,0.00,Wunderground v.1.15,2013-04-16 17:32:00,
2013-04-16 13:38:00,70.9,62.6,30.25,NE,47,1.0,2.0,75,0.00,,,0.00,Wunderground v.1.15,2013-04-16 17:38:00,
2013-04-16 13:44:00,71.0,62.3,30.25,ENE,73,1.0,1.0,74,0.00,,,0.00,Wunderground v.1.15,2013-04-16 17:44:00,
2013-04-16 13:50:00,71.3,62.2,30.24,SSW,196,1.0,1.0,73,0.00,,,0.00,Wunderground v.1.15,2013-04-16 17:50:00,
2013-04-16 13:56:00,72.0,62.1,30.24,East,79,1.0,2.0,71,0.00,,,0.00,Wunderground v.1.15,2013-04-16 17:56:00,
2013-04-16 14:02:00,72.7,63.1,30.24,ESE,118,1.0,2.0,72,0.00,,,0.00,Wunderground v.1.15,2013-04-16 18:02:00,
2013-04-16 14:08:00,72.9,61.7,30.24,ESE,120,1.0,2.0,68,0.00,,,0.00,Wunderground v.1.15,2013-04-16 18:08:00,
2013-04-16 14:14:00,73.1,62.7,30.23,ESE,109,1.0,2.0,70,0.00,,,0.00,Wunderground v.1.15,2013-04-16 18:14:00,
2013-04-16 14:20:00,73.6,62.4,30.23,ESE,109,1.0,1.0,68,0.00,,,0.00,Wunderground v.1.15,2013-04-16 18:20:00,
2013-04-16 14:26:00,74.1,62.0,30.24,East,81,1.0,1.0,66,0.00,,,0.00,Wunderground v.1.15,2013-04-16 18:26:00,
2013-04-16 14:32:00,74.2,61.7,30.23,SE,127,1.0,2.0,65,0.00,,,0.00,Wunderground v.1.15,2013-04-16 18:32:00,
2013-04-16 14:38:00,73.8,63.0,30.23,NE,34,2.0,2.0,69,0.00,,,0.00,Wunderground v.1.15,2013-04-16 18:38:00,
2013-04-16 14:44:00,74.2,62.1,30.23,SSW,205,1.0,3.0,66,0.00,,,0.00,Wunderground v.1.15,2013-04-16 18:44:00,
2013-04-16 14:50:00,74.4,61.9,30.23,North,355,1.0,1.0,65,0.00,,,0.00,Wunderground v.1.15,2013-04-16 18:50:00,
2013-04-16 14:56:00,74.8,61.4,30.22,SE,126,1.0,1.0,63,0.00,,,0.00,Wunderground v.1.15,2013-04-16 18:56:00,
2013-04-16 15:02:00,74.7,60.8,30.22,ENE,71,1.0,3.0,62,0.00,,,0.00,Wunderground v.1.15,2013-04-16 19:02:00,
2013-04-16 15:08:00,74.9,61.5,30.22,ENE,71,2.0,3.0,63,0.00,,,0.00,Wunderground v.1.15,2013-04-16 19:08:00,
2013-04-16 15:14:00,75.3,61.4,30.21,East,89,1.0,1.0,62,0.00,,,0.00,Wunderground v.1.15,2013-04-16 19:14:00,
2013-04-16 15:20:00,75.4,61.9,30.21,ENE,74,2.0,2.0,63,0.00,,,0.00,Wunderground v.1.15,2013-04-16 19:20:00,
2013-04-16 15:26:00,75.5,62.9,30.20,NNE,30,2.0,2.0,65,0.00,,,0.00,Wunderground v.1.15,2013-04-16 19:26:00,
2013-04-16 15:32:00,75.8,60.9,30.20,South,179,1.0,4.0,60,0.00,,,0.00,Wunderground v.1.15,2013-04-16 19:32:00,
2013-04-16 15:38:00,75.9,61.0,30.19,SSE,164,1.0,4.0,60,0.00,,,0.00,Wunderground v.1.15,2013-04-16 19:38:00,
2013-04-16 15:44:00,76.2,61.8,30.19,ESE,111,1.0,1.0,61,0.00,,,0.00,Wunderground v.1.15,2013-04-16 19:44:00,
2013-04-16 15:50:00,76.8,61.9,30.18,ESE,111,1.0,1.0,60,0.00,,,0.00,Wunderground v.1.15,2013-04-16 19:50:00,
2013-04-16 15:56:00,77.0,60.6,30.18,ENE,63,1.0,3.0,57,0.00,,,0.00,Wunderground v.1.15,2013-04-16 19:56:00,
2013-04-16 16:02:00,76.9,61.5,30.18,NNE,31,1.0,1.0,59,0.00,,,0.00,Wunderground v.1.15,2013-04-16 20:02:00,
2013-04-16 16:08:00,77.1,59.7,30.18,NNE,31,1.0,2.0,55,0.00,,,0.00,Wunderground v.1.15,2013-04-16 20:08:00,
2013-04-16 16:14:00,77.1,58.6,30.18,NNE,31,1.0,1.0,53,0.00,,,0.00,Wunderground v.1.15,2013-04-16 20:14:00,
2013-04-16 16:20:00,76.2,58.9,30.18,NNE,31,1.0,1.0,55,0.00,,,0.00,Wunderground v.1.15,2013-04-16 20:20:00,
2013-04-16 16:28:00,75.7,57.9,30.17,NE,34,0.0,2.0,54,0.00,,,0.00,Wunderground v.1.15,2013-04-16 20:28:00,
2013-04-16 16:34:00,76.5,58.6,30.17,NNE,21,0.0,1.0,54,0.00,,,0.00,Wunderground v.1.15,2013-04-16 20:34:00,
2013-04-16 16:40:00,76.9,58.5,30.17,NNE,20,1.0,1.0,53,0.00,,,0.00,Wunderground v.1.15,2013-04-16 20:40:00,
2013-04-16 16:46:00,77.3,59.4,30.17,WNW,298,1.0,1.0,54,0.00,,,0.00,Wunderground v.1.15,2013-04-16 20:46:00,
2013-04-16 16:52:00,77.0,58.6,30.17,WNW,296,1.0,1.0,53,0.00,,,0.00,Wunderground v.1.15,2013-04-16 20:52:00,
2013-04-16 16:58:00,76.9,59.5,30.17,WNW,296,1.0,1.0,55,0.00,,,0.00,Wunderground v.1.15,2013-04-16 20:58:00,
2013-04-16 17:04:00,76.7,58.8,30.17,WNW,296,1.0,2.0,54,0.00,,,0.00,Wunderground v.1.15,2013-04-16 21:04:00,
2013-04-16 17:10:00,76.6,60.2,30.17,NE,50,1.0,2.0,57,0.00,,,0.00,Wunderground v.1.15,2013-04-16 21:10:00,
2013-04-16 17:16:00,76.9,60.0,30.17,North,9,1.0,2.0,56,0.00,,,0.00,Wunderground v.1.15,2013-04-16 21:16:00,
2013-04-16 17:22:00,76.8,59.4,30.17,North,9,0.0,2.0,55,0.00,,,0.00,Wunderground v.1.15,2013-04-16 21:22:00,
2013-04-16 17:28:00,76.2,57.3,30.16,North,349,1.0,2.0,52,0.00,,,0.00,Wunderground v.1.15,2013-04-16 21:28:00,
2013-04-16 17:34:00,76.0,58.2,30.17,North,349,0.0,0.0,54,0.00,,,0.00,Wunderground v.1.15,2013-04-16 21:34:00,
2013-04-16 17:40:00,76.0,58.7,30.17,North,349,0.0,0.0,55,0.00,,,0.00,Wunderground v.1.15,2013-04-16 21:40:00,
2013-04-16 17:46:00,76.1,59.8,30.17,North,349,0.0,0.0,57,0.00,,,0.00,Wunderground v.1.15,2013-04-16 21:46:00,
2013-04-16 17:52:00,76.1,59.8,30.17,North,349,0.0,0.0,57,0.00,,,0.00,Wunderground v.1.15,2013-04-16 21:52:00,
2013-04-16 17:58:00,75.7,59.4,30.17,NE,39,0.0,2.0,57,0.00,,,0.00,Wunderground v.1.15,2013-04-16 21:58:00,
2013-04-16 18:04:00,75.5,58.7,30.16,NE,39,0.0,0.0,56,0.00,,,0.00,Wunderground v.1.15,2013-04-16 22:04:00,
2013-04-16 18:10:00,75.3,58.5,30.16,NE,39,0.0,0.0,56,0.00,,,0.00,Wunderground v.1.15,2013-04-16 22:10:00,
2013-04-16 18:16:00,75.0,58.7,30.16,NE,39,0.0,1.0,57,0.00,,,0.00,Wunderground v.1.15,2013-04-16 22:16:00,
2013-04-16 18:22:00,74.6,58.8,30.16,NE,39,0.0,0.0,58,0.00,,,0.00,Wunderground v.1.15,2013-04-16 22:22:00,
2013-04-16 18:28:00,74.4,59.1,30.16,NE,39,0.0,0.0,59,0.00,,,0.00,Wunderground v.1.15,2013-04-16 22:28:00,
2013-04-16 18:34:00,74.0,59.2,30.16,NE,39,0.0,0.0,60,0.00,,,0.00,Wunderground v.1.15,2013-04-16 22:34:00,
2013-04-16 18:40:00,73.8,60.4,30.16,NE,39,0.0,0.0,63,0.00,,,0.00,Wunderground v.1.15,2013-04-16 22:40:00,
2013-04-16 18:46:00,73.4,60.9,30.16,NE,39,0.0,0.0,65,0.00,,,0.00,Wunderground v.1.15,2013-04-16 22:46:00,
2013-04-16 18:52:00,73.1,61.1,30.16,NE,39,0.0,0.0,66,0.00,,,0.00,Wunderground v.1.15,2013-04-16 22:52:00,
2013-04-16 18:58:00,72.8,61.2,30.16,NE,39,0.0,0.0,67,0.00,,,0.00,Wunderground v.1.15,2013-04-16 22:58:00,
2013-04-16 19:04:00,72.4,60.4,30.16,NE,39,0.0,0.0,66,0.00,,,0.00,Wunderground v.1.15,2013-04-16 23:04:00,
2013-04-16 19:10:00,72.1,60.5,30.16,NE,39,0.0,0.0,67,0.00,,,0.00,Wunderground v.1.15,2013-04-16 23:10:00,
2013-04-16 19:16:00,71.9,60.3,30.16,NE,39,0.0,0.0,67,0.00,,,0.00,Wunderground v.1.15,2013-04-16 23:16:00,
2013-04-16 19:22:00,71.6,60.5,30.16,NE,39,0.0,0.0,68,0.00,,,0.00,Wunderground v.1.15,2013-04-16 23:22:00,
2013-04-16 19:28:00,71.3,60.6,30.16,NE,39,0.0,0.0,69,0.00,,,0.00,Wunderground v.1.15,2013-04-16 23:28:00,
2013-04-16 19:34:00,70.9,60.6,30.16,NE,39,0.0,0.0,70,0.00,,,0.00,Wunderground v.1.15,2013-04-16 23:34:00,
2013-04-16 19:40:00,70.5,60.6,30.16,NE,39,0.0,0.0,71,0.00,,,0.00,Wunderground v.1.15,2013-04-16 23:40:00,
2013-04-16 19:46:00,70.1,60.7,30.16,NE,39,0.0,0.0,72,0.00,,,0.00,Wunderground v.1.15,2013-04-16 23:46:00,
2013-04-16 19:52:00,69.6,60.6,30.16,NE,39,0.0,0.0,73,0.00,,,0.00,Wunderground v.1.15,2013-04-16 23:52:00,
2013-04-16 19:58:00,69.0,60.7,30.16,NE,39,0.0,0.0,75,0.00,,,0.00,Wunderground v.1.15,2013-04-16 23:58:00,
2013-04-16 20:04:00,68.4,60.5,30.16,NE,39,0.0,0.0,76,0.00,,,0.00,Wunderground v.1.15,2013-04-17 00:04:00,
2013-04-16 20:10:00,67.9,60.4,30.16,NE,39,0.0,0.0,77,0.00,,,0.00,Wunderground v.1.15,2013-04-17 00:10:00,
2013-04-16 20:16:00,67.4,60.3,30.16,NE,39,0.0,0.0,78,0.00,,,0.00,Wunderground v.1.15,2013-04-17 00:16:00,
2013-04-16 20:22:00,67.0,59.9,30.16,NE,39,0.0,0.0,78,0.00,,,0.00,Wunderground v.1.15,2013-04-17 00:22:00,
2013-04-16 20:28:00,66.5,60.1,30.16,NE,39,0.0,0.0,80,0.00,,,0.00,Wunderground v.1.15,2013-04-17 00:28:00,
2013-04-16 20:34:00,66.0,59.7,30.16,NE,39,0.0,0.0,80,0.00,,,0.00,Wunderground v.1.15,2013-04-17 00:34:00,
2013-04-16 20:40:00,65.6,60.0,30.16,NE,39,0.0,0.0,82,0.00,,,0.00,Wunderground v.1.15,2013-04-17 00:40:00,
2013-04-16 20:46:00,65.1,59.1,30.16,NE,39,0.0,0.0,81,0.00,,,0.00,Wunderground v.1.15,2013-04-17 00:46:00,
2013-04-16 20:52:00,64.7,59.4,30.17,NE,39,0.0,0.0,83,0.00,,,0.00,Wunderground v.1.15,2013-04-17 00:52:00,
2013-04-16 20:58:00,64.2,58.9,30.17,NE,39,0.0,0.0,83,0.00,,,0.00,Wunderground v.1.15,2013-04-17 00:58:00,
2013-04-16 21:04:00,63.9,58.6,30.17,NE,39,0.0,0.0,83,0.00,,,0.00,Wunderground v.1.15,2013-04-17 01:04:00,
2013-04-16 21:10:00,63.5,59.2,30.17,NE,39,0.0,0.0,86,0.00,,,0.00,Wunderground v.1.15,2013-04-17 01:10:00,
2013-04-16 21:16:00,63.1,58.8,30.17,NE,39,0.0,0.0,86,0.00,,,0.00,Wunderground v.1.15,2013-04-17 01:16:00,
2013-04-16 21:22:00,62.7,58.8,30.17,NE,39,0.0,0.0,87,0.00,,,0.00,Wunderground v.1.15,2013-04-17 01:22:00,
2013-04-16 21:28:00,62.4,58.8,30.18,NE,39,0.0,0.0,88,0.00,,,0.00,Wunderground v.1.15,2013-04-17 01:28:00,
2013-04-16 21:34:00,62.1,58.2,30.18,NE,39,0.0,0.0,87,0.00,,,0.00,Wunderground v.1.15,2013-04-17 01:34:00,
2013-04-16 21:40:00,61.8,58.2,30.18,NE,39,0.0,0.0,88,0.00,,,0.00,Wunderground v.1.15,2013-04-17 01:40:00,
2013-04-16 21:46:00,61.5,58.2,30.18,NE,39,0.0,0.0,89,0.00,,,0.00,Wunderground v.1.15,2013-04-17 01:46:00,
2013-04-16 21:52:00,61.2,57.9,30.18,NE,39,0.0,0.0,89,0.00,,,0.00,Wunderground v.1.15,2013-04-17 01:52:00,
2013-04-16 21:58:00,61.0,57.7,30.18,NE,39,0.0,0.0,89,0.00,,,0.00,Wunderground v.1.15,2013-04-17 01:58:00,
2013-04-16 22:04:00,60.7,57.7,30.18,NE,39,0.0,0.0,90,0.00,,,0.00,Wunderground v.1.15,2013-04-17 02:04:00,
2013-04-16 22:10:00,60.4,57.5,30.18,NE,39,0.0,0.0,90,0.00,,,0.00,Wunderground v.1.15,2013-04-17 02:10:00,
2013-04-16 22:16:00,60.2,57.3,30.18,NE,39,0.0,0.0,90,0.00,,,0.00,Wunderground v.1.15,2013-04-17 02:16:00,
2013-04-16 22:22:00,59.9,57.3,30.18,NE,39,0.0,0.0,91,0.00,,,0.00,Wunderground v.1.15,2013-04-17 02:22:00,
2013-04-16 22:28:00,59.6,57.0,30.18,NE,39,0.0,0.0,91,0.00,,,0.00,Wunderground v.1.15,2013-04-17 02:28:00,
2013-04-16 22:34:00,59.4,56.8,30.18,NE,39,0.0,0.0,91,0.00,,,0.00,Wunderground v.1.15,2013-04-17 02:34:00,
2013-04-16 22:40:00,59.3,57.0,30.18,NE,39,0.0,0.0,92,0.00,,,0.00,Wunderground v.1.15,2013-04-17 02:40:00,
2013-04-16 22:46:00,59.0,57.0,30.18,NE,39,0.0,0.0,93,0.00,,,0.00,Wunderground v.1.15,2013-04-17 02:46:00,
2013-04-16 22:52:00,58.7,56.7,30.19,NE,39,0.0,0.0,93,0.00,,,0.00,Wunderground v.1.15,2013-04-17 02:52:00,
2013-04-16 22:58:00,58.7,57.0,30.19,NE,39,0.0,0.0,94,0.00,,,0.00,Wunderground v.1.15,2013-04-17 02:58:00,
2013-04-16 23:04:00,58.7,56.7,30.19,NE,39,0.0,0.0,93,0.00,,,0.00,Wunderground v.1.15,2013-04-17 03:04:00,
2013-04-16 23:10:00,58.7,57.0,30.19,NE,39,0.0,0.0,94,0.00,,,0.00,Wunderground v.1.15,2013-04-17 03:10:00,
2013-04-16 23:16:00,58.5,56.8,30.19,NE,39,0.0,0.0,94,0.00,,,0.00,Wunderground v.1.15,2013-04-17 03:16:00,
2013-04-16 23:22:00,58.3,56.6,30.19,NE,39,0.0,0.0,94,0.00,,,0.00,Wunderground v.1.15,2013-04-17 03:22:00,
2013-04-16 23:28:00,58.1,56.4,30.19,NE,39,0.0,0.0,94,0.00,,,0.00,Wunderground v.1.15,2013-04-17 03:28:00,
2013-04-16 23:34:00,57.9,56.2,30.19,NE,39,0.0,0.0,94,0.00,,,0.00,Wunderground v.1.15,2013-04-17 03:34:00,
2013-04-16 23:40:00,57.7,56.0,30.19,NE,39,0.0,0.0,94,0.00,,,0.00,Wunderground v.1.15,2013-04-17 03:40:00,
2013-04-16 23:46:00,57.5,55.8,30.19,NE,39,0.0,0.0,94,0.00,,,0.00,Wunderground v.1.15,2013-04-17 03:46:00,
2013-04-16 23:52:00,57.3,55.9,30.19,NE,39,0.0,0.0,95,0.00,,,0.00,Wunderground v.1.15,2013-04-17 03:52:00,
2013-04-16 23:58:00,57.1,55.7,30.19,NE,39,0.0,0.0,95,0.00,,,0.00,Wunderground v.1.15,2013-04-17 03:58:00,